KC1TWD Weather Reports


time (UTC)temp
C
wind
direction
speed
KPH
gust
KPH
rain 1hr
cm
rain 24hr
cm
rain mn
cm
humidity
%
barometer
mb
20260901150236 15 176 0.0 0.0 0.00 0.00 0.00 99 1018.4
20260901145734 16 167 0.0 0.0 0.00 0.00 0.00 99 1018.2
20260901145234 16 164 0.0 0.0 0.00 0.00 0.00 99 1018.3
20260901144729 15 160 0.0 0.0 0.00 0.00 0.00 99 1018.6
20260901144224 15 174 0.0 0.0 0.00 0.00 0.00 99 1018.4
20260901143720 15 178 0.0 0.0 0.00 0.00 0.00 99 1018.6
20260901143216 15 178 0.0 0.0 0.00 0.00 0.00 99 1018.6
20260901142712 15 178 0.0 0.0 0.00 0.00 0.00 99 1018.5
20260901142211 15 185 0.0 0.0 0.00 0.00 0.00 99 1018.5
20260901141707 15 201 0.0 0.0 0.00 0.00 0.00 99 1018.5
20260901141206 15 184 0.0 0.0 0.00 0.00 0.00 99 1018.6
20260901140705 15 187 0.0 0.0 0.00 0.00 0.00 99 1018.7
20260901140204 15 291 0.0 0.0 0.00 0.00 0.00 99 1018.7
20260901135700 15 306 0.0 0.0 0.00 0.00 0.00 99 1018.6
20260901135200 16 213 0.0 0.0 0.00 0.00 0.00 99 1018.3
20260901134656 15 210 0.0 0.0 0.00 0.00 0.00 99 1018.6
20260901134151 15 211 0.0 0.0 0.00 0.00 0.00 99 1018.5
20260901133650 15 209 0.0 0.0 0.00 0.00 0.00 99 1018.3
20260901133149 15 204 0.0 0.0 0.00 0.00 0.00 99 1018.4
20260901132643 15 204 0.0 0.0 0.00 0.00 0.00 99 1018.3
20260901132137 15 194 0.0 0.0 0.00 0.00 0.00 99 1018.2
20260901131637 15 195 0.0 0.0 0.00 0.00 0.00 99 1018.4
20260901131131 15 194 0.0 0.0 0.00 0.00 0.00 99 1018.4
20260901130627 15 216 0.0 0.0 0.00 0.00 0.00 99 1018.5
20260901130125 15 213 0.0 0.0 0.00 0.00 0.00 99 1018.6
20260901125624 15 208 0.0 0.0 0.00 0.00 0.00 99 1018.9
20260901125120 15 227 0.0 0.0 0.00 0.00 0.00 99 1018.7
20260901124619 15 237 0.0 0.0 0.00 0.00 0.00 99 1019.1
20260901124114 15 250 0.0 0.0 0.00 0.00 0.00 99 1018.9
20260901123614 15 250 0.0 0.0 0.00 0.00 0.00 99 1019.1
20260901123113 15 254 0.0 0.0 0.00 0.00 0.00 99 1019.1
20260901122613 15 266 0.0 0.0 0.00 0.00 0.00 99 1019.0
20260901122112 15 237 0.0 0.0 0.00 0.00 0.00 99 1019.2
20260901121607 15 232 0.0 0.0 0.00 0.00 0.00 99 1019.0
20260901121103 15 231 0.0 0.0 0.00 0.00 0.00 99 1019.3
20260901120602 15 228 0.0 0.0 0.00 0.00 0.00 99 1019.4
20260901120058 15 236 0.0 0.0 0.00 0.00 0.00 99 1019.2
20260901115553 15 235 0.0 0.0 0.00 0.00 0.00 99 1019.2
20260901115044 15 238 0.0 0.0 0.00 0.00 0.00 98 1019.2
20260901114540 15 238 0.0 0.0 0.00 0.00 0.00 98 1019.1
20260901114038 15 239 0.0 0.0 0.00 0.00 0.00 97 1019.1
20260901113537 16 240 0.0 0.0 0.00 0.00 0.00 97 1018.9
20260901113033 16 244 0.0 0.0 0.00 0.00 0.00 97 1018.8
20260901112533 16 242 0.0 0.0 0.00 0.00 0.00 97 1018.8
20260901112028 16 227 0.0 0.0 0.00 0.00 0.00 96 1018.6
20260901111526 16 227 0.0 0.0 0.00 0.00 0.00 96 1018.6
20260901111025 16 232 0.0 0.0 0.00 0.00 0.00 96 1018.2
20260901110521 16 272 0.0 0.0 0.00 0.00 0.00 96 1018.3
20260901110017 16 272 0.0 0.0 0.00 0.00 0.00 96 1018.4
20260901105513 16 233 0.0 0.0 0.00 0.00 0.00 95 1018.1
20260901105012 16 234 0.0 0.0 0.00 0.00 0.00 95 1018.3
20260901104508 16 255 0.0 0.0 0.00 0.00 0.00 96 1018.3
20260901103958 16 255 0.0 0.0 0.00 0.00 0.00 96 1018.1
20260901103458 16 255 0.0 0.0 0.00 0.00 0.00 96 1018.2
20260901102953 16 255 0.0 0.0 0.00 0.00 0.00 96 1018.0
20260901102448 16 299 0.0 0.0 0.00 0.00 0.00 96 1017.9
20260901101942 16 214 0.0 0.0 0.00 0.00 0.00 96 1017.9
20260901101437 16 213 0.0 0.0 0.00 0.00 0.00 96 1017.8
20260901100932 16 215 0.0 0.0 0.00 0.00 0.00 96 1017.9
20260901100426 16 219 0.0 0.0 0.00 0.00 0.00 95 1017.9
20260901095920 16 225 0.0 0.0 0.00 0.00 0.00 95 1017.7
20260901095419 16 314 0.0 0.0 0.00 0.00 0.00 96 1017.6
20260901094917 16 302 0.0 0.0 0.00 0.00 0.00 96 1017.5
20260901094412 16 226 0.0 0.0 0.00 0.00 0.00 96 1017.3
20260901093912 16 232 0.0 0.0 0.00 0.00 0.00 96 1017.5
20260901093411 16 232 0.0 0.0 0.00 0.00 0.00 96 1017.5
20260901092907 16 229 0.0 0.0 0.00 0.00 0.00 96 1017.3
20260901092402 16 233 0.0 0.0 0.00 0.00 0.00 96 1017.3
20260901091858 16 233 0.0 0.0 0.00 0.00 0.00 96 1017.5
20260901091358 16 233 0.0 0.0 0.00 0.00 0.00 96 1017.8
20260901090853 16 233 0.0 0.0 0.00 0.00 0.00 96 1017.6
20260901090348 16 233 0.0 0.0 0.00 0.00 0.00 96 1017.3
20260901085844 16 233 0.0 0.0 0.00 0.00 0.00 96 1017.4
20260901085339 16 233 0.0 0.0 0.00 0.00 0.00 96 1017.6
20260901084835 16 233 0.0 0.0 0.00 0.00 0.00 96 1017.5
20260901084331 16 233 0.0 0.0 0.00 0.00 0.00 96 1017.5
20260901083827 15 233 0.0 0.0 0.00 0.00 0.00 96 1017.6
20260901083326 15 233 0.0 0.0 0.00 0.00 0.00 96 1017.5
20260901082825 15 233 0.0 0.0 0.00 0.00 0.00 96 1017.6
20260901082320 15 233 0.0 0.0 0.00 0.00 0.00 96 1017.7
20260901081815 15 233 0.0 0.0 0.00 0.00 0.00 96 1017.5
20260901081315 15 233 0.0 0.0 0.00 0.00 0.00 97 1017.8
20260901080810 15 233 0.0 0.0 0.00 0.00 0.00 97 1017.8
20260901080310 15 233 0.0 0.0 0.00 0.00 0.00 97 1017.7
20260901075804 15 232 0.0 0.0 0.00 0.00 0.00 97 1017.8
20260901075300 15 266 0.0 0.0 0.00 0.00 0.00 97 1017.9
20260901074800 15 267 0.0 0.0 0.00 0.00 0.00 97 1017.9
20260901074254 15 267 0.0 0.0 0.00 0.00 0.00 97 1017.9
20260901073750 15 267 0.0 0.0 0.00 0.00 0.00 97 1017.9
20260901073246 15 267 0.0 0.0 0.00 0.00 0.00 97 1017.8
20260901072741 15 267 0.0 0.0 0.00 0.00 0.00 97 1017.9
20260901072236 15 267 0.0 0.0 0.00 0.00 0.00 97 1018.0
20260901071736 15 267 0.0 0.0 0.00 0.00 0.00 97 1018.1
20260901071230 15 269 0.0 0.0 0.00 0.00 0.00 97 1018.1
20260901070729 15 269 0.0 0.0 0.00 0.00 0.00 97 1018.2
20260901070224 15 269 0.0 0.0 0.00 0.00 0.00 96 1018.1
20260901065724 15 269 0.0 0.0 0.00 0.00 0.00 96 1018.1
20260901065219 15 263 0.0 0.0 0.00 0.00 0.00 96 1018.3
20260901064715 15 242 0.0 0.0 0.00 0.00 0.00 96 1017.8
20260901064212 15 243 0.0 0.0 0.00 0.00 0.00 96 1018.0
20260901063709 15 236 0.0 0.0 0.00 0.00 0.00 96 1018.4
20260901063204 15 236 0.0 0.0 0.00 0.00 0.00 95 1018.3
20260901062700 15 231 0.0 0.0 0.00 0.00 0.00 96 1018.1
20260901062155 15 229 0.0 0.0 0.00 0.00 0.00 96 1018.2
20260901061652 16 229 0.0 0.0 0.00 0.00 0.00 95 1018.4
20260901061151 16 246 0.0 0.0 0.00 0.00 0.00 95 1018.2
20260901060646 16 248 0.0 0.0 0.00 0.00 0.00 95 1018.3
20260901060142 16 246 0.0 0.0 0.00 0.00 0.00 95 1018.2
20260901055637 16 239 0.0 0.0 0.00 0.00 0.00 95 1018.3
20260901055134 16 239 0.0 0.0 0.00 0.00 0.00 95 1018.3
20260901054631 16 248 0.0 0.0 0.00 0.00 0.00 95 1018.4
20260901054126 16 246 0.0 0.0 0.00 0.00 0.00 95 1018.2
20260901053622 16 252 0.0 0.0 0.00 0.00 0.00 95 1018.3
20260901053118 16 289 0.0 0.0 0.00 0.00 0.00 95 1018.4
20260901052618 16 290 0.0 0.0 0.00 0.00 0.00 95 1018.3
20260901052113 16 291 0.0 0.0 0.00 0.00 0.00 95 1018.5
20260901051613 16 283 0.0 0.0 0.00 0.00 0.00 95 1018.4
20260901051112 16 254 0.0 0.0 0.00 0.00 0.00 95 1018.4
20260901050608 16 254 0.0 0.0 0.00 0.00 0.00 95 1018.3
20260901050103 16 253 0.0 0.0 0.00 0.00 0.00 95 1018.4
20260901045558 16 253 0.0 0.0 0.00 0.00 0.00 95 1018.4
20260901045058 16 226 0.0 0.0 0.00 0.00 0.00 95 1018.2
20260901044554 16 225 0.0 0.0 0.00 0.00 0.00 95 1018.3
20260901044049 16 225 0.0 0.0 0.00 0.00 0.00 95 1018.2
20260901043545 16 225 0.0 0.0 0.00 0.00 0.00 95 1018.3
20260901043040 16 225 0.0 0.0 0.00 0.00 0.00 95 1018.1
20260901042539 16 225 0.0 0.0 0.00 0.00 0.00 95 1018.0
20260901042035 16 225 0.0 0.0 0.00 0.00 0.00 95 1018.1
20260901041530 16 225 0.0 0.0 0.00 0.00 0.00 95 1018.1
20260901041025 16 225 0.0 0.0 0.00 0.00 0.00 94 1018.1
20260901040519 16 226 0.0 0.0 0.00 0.00 0.00 94 1017.9
20260901040014 16 215 0.0 0.0 0.00 0.00 0.00 94 1018.0
20260901035511 16 214 0.0 0.0 0.00 0.00 0.00 94 1018.0
20260901035011 16 258 0.0 0.0 0.00 0.00 0.00 94 1018.1
20260901034510 16 262 0.0 0.0 0.00 0.00 0.00 94 1018.1
20260901034005 16 256 0.0 0.0 0.00 0.00 0.00 94 1018.2
20260901033504 16 256 0.0 0.0 0.00 0.00 0.00 94 1018.3
20260901033003 16 256 0.0 0.0 0.00 0.00 0.00 94 1018.2
20260901032457 16 255 0.0 0.0 0.00 0.00 0.00 93 1018.2
20260901031952 16 244 0.0 0.0 0.00 0.00 0.00 93 1018.1
20260901031448 16 243 0.0 0.0 0.00 0.00 0.00 93 1018.1
20260901030948 16 243 0.0 0.0 0.00 0.00 0.00 92 1018.0
20260901030443 16 243 0.0 0.0 0.00 0.00 0.00 92 1018.2
20260901025942 17 243 0.0 0.0 0.00 0.00 0.00 92 1018.0
20260901025437 17 245 0.0 0.0 0.00 0.00 0.00 91 1018.2
20260901024936 17 245 0.0 0.0 0.00 0.00 0.00 91 1018.0
20260901024431 17 252 0.0 0.0 0.00 0.00 0.00 90 1018.2
20260901023930 17 252 0.0 0.0 0.00 0.00 0.00 90 1018.2
20260901023425 17 252 0.0 0.0 0.00 0.00 0.00 90 1018.1
20260901022920 17 263 0.0 0.0 0.00 0.00 0.00 89 1018.1
20260901022416 17 233 0.0 0.0 0.00 0.00 0.00 89 1018.2
20260901021910 17 233 0.0 0.0 0.00 0.00 0.00 88 1018.3
20260901021406 17 233 0.0 0.0 0.00 0.00 0.00 88 1018.1
20260901020901 17 233 0.0 0.0 0.00 0.00 0.00 88 1018.1
20260901020357 18 234 0.0 0.0 0.00 0.00 0.00 87 1018.0
20260901015855 18 234 0.0 0.0 0.00 0.00 0.00 87 1018.0
20260901015352 18 234 0.0 0.0 0.00 0.00 0.00 86 1018.0
20260901014851 18 234 0.0 0.0 0.00 0.00 0.00 86 1018.1
20260901014348 18 234 0.0 0.0 0.00 0.00 0.00 85 1018.1
20260901013843 18 234 0.0 0.0 0.00 0.00 0.00 85 1018.1
20260901013338 18 234 0.0 0.0 0.00 0.00 0.00 85 1018.0
20260901012834 18 233 0.0 0.0 0.00 0.00 0.00 85 1018.1
20260901012329 18 233 0.0 0.0 0.00 0.00 0.00 84 1018.0
20260901011825 18 233 0.0 0.0 0.00 0.00 0.00 84 1018.1
20260901011321 18 233 0.0 0.0 0.00 0.00 0.00 84 1018.1
20260901010820 19 233 0.0 0.0 0.00 0.00 0.00 84 1018.1
20260901010320 19 233 0.0 0.0 0.00 0.00 0.00 82 1018.3
20260901005818 19 233 0.0 0.0 0.00 0.00 0.00 82 1018.2
20260901005314 19 233 0.0 0.0 0.00 0.00 0.00 82 1018.3
20260901004814 19 233 0.0 0.0 0.00 0.00 0.00 82 1018.2
20260901004308 19 233 0.0 0.0 0.00 0.00 0.00 82 1018.1
20260901003803 19 233 0.0 0.0 0.00 0.00 0.00 82 1018.1
20260901003258 19 233 0.0 0.0 0.00 0.00 0.00 82 1018.3
20260901002756 19 232 0.0 0.0 0.00 0.00 0.00 81 1018.2
20260901002251 19 232 0.0 0.0 0.00 0.00 0.00 82 1018.1
20260901001746 20 232 0.0 0.0 0.00 0.00 0.00 81 1017.9
20260901001242 20 233 0.0 0.0 0.00 0.00 0.00 80 1018.0
20260901000737 20 233 0.0 0.0 0.00 0.00 0.00 79 1018.0
20260901000233 20 233 0.0 0.0 0.00 0.00 0.00 79 1018.1
20260831235731 20 238 0.0 0.0 0.00 0.00 0.00 79 1018.0
20260831235227 20 238 0.0 0.0 0.00 0.00 0.00 79 1017.7
20260831234727 20 238 0.0 0.0 0.00 0.00 0.00 78 1017.8
20260831234222 20 238 0.0 0.0 0.00 0.00 0.00 77 1017.7
20260831233717 20 239 0.0 0.0 0.00 0.00 0.00 77 1017.7
20260831233213 21 238 0.0 0.0 0.00 0.00 0.00 76 1017.9
20260831232712 21 239 0.0 0.0 0.00 0.00 0.00 76 1017.7
20260831232209 21 238 0.0 0.0 0.00 0.00 0.00 76 1018.1
20260831231705 21 239 0.0 0.0 0.00 0.00 0.00 75 1018.0
20260831231201 21 235 0.0 0.0 0.00 0.00 0.00 74 1018.1
20260831230701 21 235 0.0 0.0 0.00 0.00 0.00 74 1018.2
20260831230156 21 235 0.0 0.0 0.00 0.00 0.00 73 1018.2
20260831225655 22 236 0.0 0.0 0.00 0.00 0.00 71 1018.1
20260831225150 22 235 0.0 0.0 0.00 0.00 0.00 71 1018.0
20260831224651 22 236 0.0 0.0 0.00 0.00 0.00 70 1018.0
20260831224146 22 235 0.0 0.0 0.00 0.00 0.00 69 1018.3
20260831223642 22 236 0.0 0.0 0.00 0.00 0.00 69 1018.1
20260831223138 22 215 0.0 0.0 0.00 0.00 0.00 69 1018.2
20260831222634 22 223 0.0 0.0 0.00 0.00 0.00 68 1018.0
20260831222129 23 257 0.0 0.0 0.00 0.00 0.00 68 1018.1
20260831221625 23 227 0.0 0.0 0.00 0.00 0.00 68 1018.2
20260831221120 23 218 0.0 0.0 0.00 0.00 0.00 68 1018.1
20260831220615 23 221 0.0 0.0 0.00 0.00 0.00 67 1018.1
20260831220110 23 199 0.0 0.0 0.00 0.00 0.00 65 1018.1
20260831215605 23 222 0.0 0.0 0.00 0.00 0.00 67 1018.0
20260831215101 23 253 0.0 0.0 0.00 0.00 0.00 67 1018.0
20260831214558 23 306 0.0 0.0 0.00 0.00 0.00 67 1018.0
20260831214054 23 169 0.0 0.0 0.00 0.00 0.00 65 1018.0
20260831213550 23 169 0.0 0.0 0.00 0.00 0.00 62 1018.1
20260831213045 23 177 0.0 0.0 0.00 0.00 0.00 63 1018.0
20260831212541 23 140 0.0 0.0 0.00 0.00 0.00 62 1018.0
20260831212037 23 131 0.0 0.0 0.00 0.00 0.00 60 1018.0
20260831211531 23 151 0.0 0.0 0.00 0.00 0.00 62 1017.9
20260831211031 23 129 0.0 0.0 0.00 0.00 0.00 60 1017.9
20260831210526 23 178 0.0 0.0 0.00 0.00 0.00 61 1017.9
20260831210022 23 148 0.0 0.0 0.00 0.00 0.00 60 1018.0
20260831205522 23 118 0.0 0.0 0.00 0.00 0.00 60 1018.1
20260831205018 23 195 0.0 0.0 0.00 0.00 0.00 58 1018.1
20260831204513 24 95 0.0 1.6 0.00 0.00 0.00 56 1018.2
20260831204011 24 111 0.0 0.0 0.00 0.00 0.00 60 1018.2
20260831203511 24 144 0.0 1.6 0.00 0.00 0.00 56 1018.4
20260831203009 25 70 0.0 0.0 0.00 0.00 0.00 54 1018.3
20260831202504 25 139 0.0 1.6 0.00 0.00 0.00 54 1018.4
20260831202003 25 150 0.0 1.6 0.00 0.00 0.00 48 1018.5
20260831201502 25 110 0.0 0.0 0.00 0.00 0.00 51 1018.3
20260831200959 25 159 0.0 3.2 0.00 0.00 0.00 47 1018.4
20260831200454 26 169 0.0 1.6 0.00 0.00 0.00 47 1018.3
20260831195954 26 186 0.0 0.0 0.00 0.00 0.00 50 1018.4
20260831195449 25 151 0.0 1.6 0.00 0.00 0.00 45 1018.4
20260831194944 25 127 0.0 1.6 0.00 0.00 0.00 44 1018.6
20260831194440 26 187 0.0 3.2 0.00 0.00 0.00 43 1018.5
20260831193939 26 61 0.0 1.6 0.00 0.00 0.00 49 1018.5
20260831193435 26 153 1.6 1.6 0.00 0.00 0.00 42 1018.6
20260831192930 25 156 0.0 3.2 0.00 0.00 0.00 43 1018.5
20260831192430 26 162 1.6 3.2 0.00 0.00 0.00 46 1018.7
20260831191925 26 69 0.0 0.0 0.00 0.00 0.00 48 1018.7
20260831191421 26 200 0.0 1.6 0.00 0.00 0.00 52 1018.6
20260831190917 25 27 1.6 4.8 0.00 0.00 0.00 45 1018.7
20260831190412 26 41 3.2 6.4 0.00 0.00 0.00 48 1018.9
20260831185911 25 143 0.0 1.6 0.00 0.00 0.00 49 1018.8
20260831185408 25 153 0.0 3.2 0.00 0.00 0.00 50 1018.7
20260831184907 25 194 0.0 1.6 0.00 0.00 0.00 50 1018.8
20260831184402 26 41 0.0 1.6 0.00 0.00 0.00 50 1019.0
20260831183856 26 181 0.0 0.0 0.00 0.00 0.00 46 1018.8
20260831183350 25 205 0.0 1.6 0.00 0.00 0.00 45 1018.9
20260831182849 26 330 1.6 3.2 0.00 0.00 0.00 44 1019.1
20260831182344 26 130 0.0 1.6 0.00 0.00 0.00 49 1019.2
20260831181841 25 316 0.0 1.6 0.00 0.00 0.00 47 1019.3
20260831181336 25 52 0.0 1.6 0.00 0.00 0.00 46 1019.3
20260831180836 25 57 0.0 1.6 0.00 0.00 0.00 50 1019.3
20260831180331 25 179 0.0 3.2 0.00 0.00 0.00 47 1019.2
20260831175830 25 152 1.6 1.6 0.00 0.00 0.00 48 1019.4
20260831175326 25 78 1.6 3.2 0.00 0.00 0.00 45 1019.3
20260831174822 25 219 0.0 1.6 0.00 0.00 0.00 48 1019.4
20260831174317 24 167 0.0 1.6 0.00 0.00 0.00 57 1019.4
20260831173817 24 122 0.0 0.0 0.00 0.00 0.00 53 1019.6
20260831173311 25 47 0.0 0.0 0.00 0.00 0.00 51 1019.5
20260831172806 25 348 0.0 1.6 0.00 0.00 0.00 52 1019.6
20260831172301 25 102 1.6 3.2 0.00 0.00 0.00 53 1019.6
20260831171755 25 297 1.6 3.2 0.00 0.00 0.00 51 1019.7
20260831171252 25 17 1.6 1.6 0.00 0.00 0.00 53 1019.8
20260831170749 24 277 1.6 3.2 0.00 0.00 0.00 50 1019.8
20260831170245 24 96 0.0 1.6 0.00 0.00 0.00 55 1019.9
20260831165741 24 222 0.0 1.6 0.00 0.00 0.00 52 1019.9
20260831165237 23 214 0.0 3.2 0.00 0.00 0.00 52 1020.1
20260831164732 23 87 0.0 0.0 0.00 0.00 0.00 54 1020.0
20260831164230 23 46 1.6 1.6 0.00 0.00 0.00 53 1020.1
20260831163730 23 123 0.0 3.2 0.00 0.00 0.00 51 1020.1
20260831163226 23 183 0.0 3.2 0.00 0.00 0.00 53 1020.2
20260831162724 23 252 0.0 0.0 0.00 0.00 0.00 55 1020.3
20260831162223 23 148 0.0 0.0 0.00 0.00 0.00 59 1020.3
20260831161718 23 130 0.0 0.0 0.00 0.00 0.00 59 1020.4
20260831161215 22 121 0.0 0.0 0.00 0.00 0.00 59 1020.4
20260831160714 22 256 0.0 1.6 0.00 0.00 0.00 56 1020.6
20260831160210 23 291 0.0 0.0 0.00 0.00 0.00 55 1020.4
20260831155709 22 301 0.0 3.2 0.00 0.00 0.00 59 1020.5
20260831155205 22 296 0.0 3.2 0.00 0.00 0.00 59 1020.5
20260831154700 22 149 0.0 0.0 0.00 0.00 0.00 62 1020.6
20260831154155 22 282 1.6 3.2 0.00 0.00 0.00 58 1020.3
20260831153655 22 200 0.0 0.0 0.00 0.00 0.00 60 1020.7
20260831153151 22 310 3.2 3.2 0.00 0.00 0.00 60 1020.5
20260831152646 21 197 1.6 3.2 0.00 0.00 0.00 64 1020.6
20260831152143 21 155 0.0 0.0 0.00 0.00 0.00 63 1020.8
20260831151643 21 153 0.0 0.0 0.00 0.00 0.00 65 1020.7
20260831151136 21 138 0.0 0.0 0.00 0.00 0.00 63 1020.7
20260831150632 21 59 0.0 0.0 0.00 0.00 0.00 64 1020.7